Williams Field, Antarctic, New Zealand
  Lat: 77.88S, Lon: 166.65E
ICAO Used: NZWD
Past Weather Observations for Friday, November 21, 2014

NOTE: This archive is for the closest National Weather Service station to Williams Field, Antarctic. Information may differ from the station used for current weather conditions.

Click here for Long-term Archive

Time Weather Temperature Dewpoint Humidity Pressure Winds Precip Visibility
23:55
Partly Cloudy
19°F / -7°C -6°F / -21°C 32% 29.15 in
(987 mb)
Calm - 10km
22:55
Partly Cloudy
18°F / -8°C -4°F / -20°C 38% 29.15 in
(987 mb)
Variable 3.5 mph
(Variable 6 kph)
- 10km
21:55
Partly Cloudy
18°F / -8°C -8°F / -22°C 32% 29.15 in
(987 mb)
NE 3.5 mph
(NE 6 kph)
- 10km
20:55
Partly Cloudy
16°F / -9°C -8°F / -22°C 34% 29.18 in
(988 mb)
E 6.9 mph
(E 11 kph)
- 10km
19:55
Partly Cloudy
16°F / -9°C -8°F / -22°C 34% 29.15 in
(987 mb)
SE 9.2 mph
(SE 15 kph)
- 0999
18:55
Mostly Cloudy
10°F / -12°C -8°F / -22°C 44% 29.18 in
(988 mb)
E 8.1 mph
(E 13 kph)
- 10km
17:55
Mostly Cloudy
10°F / -12°C -9°F / -23°C 40% 29.18 in
(988 mb)
E 4.6 mph
(E 7 kph)
- 10km
16:55
Mostly Cloudy
°F / -18°C -13°F / -25°C 54% 29.18 in
(988 mb)
NE 2.3 mph
(NE 4 kph)
- 10km
15:55
Mostly Cloudy
3°F / -16°C -13°F / -25°C 46% 29.18 in
(988 mb)
E 3.5 mph
(E 6 kph)
- 10km
14:55
Partly Cloudy
-2°F / -19°C -13°F / -25°C 59% 29.18 in
(988 mb)
NE 3.5 mph
(NE 6 kph)
- 10km
13:55
Mostly Cloudy
1°F / -17°C -13°F / -25°C 50% 29.18 in
(988 mb)
ESE 5.8 mph
(ESE 9 kph)
- 10km
12:55
Mostly Cloudy
9°F / -13°C -9°F / -23°C 43% 29.18 in
(988 mb)
SE 3.5 mph
(SE 6 kph)
- 10km
11:55
Mostly Cloudy
10°F / -12°C -8°F / -22°C 44% 29.21 in
(989 mb)
SSE 2.3 mph
(SSE 4 kph)
- 10km
10:55
Mostly Cloudy
5°F / -15°C -8°F / -22°C 55% 29.21 in
(989 mb)
E 9.2 mph
(E 15 kph)
- 10km
09:55
Partly Cloudy
7°F / -14°C -4°F / -20°C 61% 29.21 in
(989 mb)
SSE 15 mph
(SSE 24 kph)
- 10km
08:55
Partly Cloudy
7°F / -14°C -4°F / -20°C 61% 29.21 in
(989 mb)
SSE 9.2 mph
(SSE 15 kph)
- 10km
07:55
Partly Cloudy
9°F / -13°C -4°F / -20°C 56% 29.24 in
(990 mb)
SE 9.2 mph
(SE 15 kph)
- 10km
06:55
Partly Cloudy
7°F / -14°C -2°F / -19°C 66% 29.24 in
(990 mb)
NE 5.8 mph
(NE 9 kph)
- 10km
04:55
Partly Cloudy
7°F / -14°C -2°F / -19°C 66% 29.27 in
(991 mb)
NNE 9.2 mph
(NNE 15 kph)
- 10km
03:55
Partly Cloudy
7°F / -14°C -2°F / -19°C 66% 29.27 in
(991 mb)
E 8.1 mph
(E 13 kph)
- 10km
02:55
Partly Cloudy
5°F / -15°C °F / -18°C 78% 29.27 in
(991 mb)
E 10.4 mph
(E 17 kph)
- 10km
00:55
Clear
9°F / -13°C 1°F / -17°C 72% 29.33 in
(993 mb)
Calm - 10km
Time Weather Temperature Dewpoint Humidity Pressure Winds Precip Visibility


Weather for websites

WeatherForYou.com, LLC is not responsible for any damages or problems caused by this service. Current weather conditions are obtained from the closest station including government and personal stations which may have varying degrees of accuracy. Weather forecasts are derived from the NOAA NDFD. Like all things, this site belongs to Jesus Christ... He just trusts me to maintain it. If you have any questions or comments email webmaster@weatherforyou.com

Copyright © 2014, WeatherForYou.com LLC. All rights reserved.